Showing default

BLACKJACK ACES-1, 56956

Orbit data source: Space-Track

BLACKJACK ACES-1, 56956 is a payload satellite owned by DARPA (US) in SSO that was launched on Mon, 12 Jun 2023 UTC via an FALCON 9 launch vehicle from the Air Force Western Test Range (AFWTR). Payload-class satellites include a variety of spacecraft equipped with specific instruments for various scientific and technological missions. These include communications satellites like Starlink; space stations such as the ISS; scientific satellites like the Hubble; Earth observation satellites from companies like Planet Labs, Umbra, and HawkEye 360; GPS; miniature CubeSats for education and research; and military/defense satellites.

Loading next visibility...
Identifier
56956, 2023-084AA
Orbit
SSO
Country
Flag of USUS
Related business
Manufacturer
BLCAN/LMSS
Mission
Operational Defense Communications
Bus & Motor
X-SAT, Unknown motor
Mass
~200 kg wet, ~200 kg dry
Launch date (UTC)
2023-06-12 (2 years ago)
Launch vehicle
FALCON 9
Launch site
Air Force Western Test Range (AFWTR)
Object type
Payload
Rocket body
Debris
Shape & HBR
Box, 0.8 m
Radar Cross Section
0.875 m², Large (>1 m²)

Expand to show TLE details & history
Last TLE update: 18 hours ago

TLE from 18 hours ago
0 BLACKJACK ACES-1
1 56956U 23084AA  25241.95841355  .00014399  00000-0  64037-3 0  9991
2 56956  97.5822   9.6762 0005515 274.9910  85.0696 15.21595980 72642
Epoch: 2025-08-29T23:00Z
TLE epoch observation values (Epoch: 2025-08-29T23:00:06.93Z)
Latitude
-0.00002°
Longitude
46.24773°
Altitude
503.789 km
Speed
7.613 km/s
True Right ascension
00h 38m 42s
True Declination
0° 00' 00"
Sunlit
Object was in full shadow at epoch
Visualization orbit readout
Latitude
Unknown
Longitude
Unknown
Altitude
Unknown
Speed
Unknown
Apparent Right ascension
Unknown
Apparent Declination
Unknown
Sunlit
N/A
Visualization observer readout
Local Sidereal Time
08:54:21
Azimuth
Unknown
Elevation
Unknown
Doppler factor
Unknown
Orbital elements
Apogee altitude
501.79 km
Perigee altitude
494.205 km
Semi-major axis
6,876.134 km
Eccentricity
0.00055
Inclination
97.5822°
RAAN
9.6762°
Arg. of periapsis
274.991°
True anomaly
85.13257°
Mean anomaly
85.0696°
Eccentric anomaly
85.10108°
Mean motion
3.80651 °/min
Orbital period
94.57 mins
BSTAR
0.00064037
Loading maneuver chart data...
Computing Atmospheric mass density...
Loading historical data...
Loading historical data...
Loading historical data...
Loading historical data...
Loading historical data...
Loading historical data...
Loading historical data...

Documentation

Showing up to 5 results
|